DW6352 Weather Reports


time (UTC)temp
C
wind
direction
speed
KPH
gust
KPH
rain 1hr
cm
rain 24hr
cm
rain mn
cm
humidity
%
barometer
mb
20260508094545 0 173 1.6 3.2 0.00 0.00 0.00 77 1007.5
20260508093037 0 173 0.0 0.0 0.00 0.00 0.00 77 1007.5
20260508091535 0 173 3.2 4.8 0.00 0.00 0.00 77 1007.6
20260508090036 1 173 1.6 4.8 0.00 0.00 0.00 77 1007.6
20260508084532 1 173 1.6 3.2 0.00 0.00 0.00 77 1007.6
20260508083029 1 175 1.6 4.8 0.00 0.00 0.00 77 1007.6
20260508081533 1 175 1.6 6.4 0.00 0.00 0.00 76 1007.7
20260508080027 1 360 4.8 6.4 0.00 0.00 0.00 75 1007.5
20260508074526 1 360 0.0 0.0 0.00 0.00 0.00 75 1007.5
20260508073024 1 360 0.0 3.2 0.00 0.00 0.00 75 1007.6
20260508071528 1 360 1.6 4.8 0.00 0.00 0.00 76 1007.8
20260508070022 1 360 1.6 6.4 0.00 0.00 0.00 76 1007.8
20260508064521 1 192 1.6 4.8 0.00 0.00 0.00 75 1007.8
20260508063019 1 192 1.6 4.8 0.00 0.00 0.00 73 1007.9
20260508061522 1 192 1.6 3.2 0.00 0.00 0.00 72 1008.0
20260508060014 1 192 3.2 4.8 0.00 0.00 0.00 71 1008.1
20260508054513 1 192 1.6 4.8 0.00 0.00 0.00 70 1008.1
20260508053010 2 192 3.2 4.8 0.00 0.00 0.00 69 1008.1
20260508051520 2 192 3.2 4.8 0.00 0.00 0.00 68 1008.2
20260508050009 2 192 1.6 4.8 0.00 0.00 0.00 67 1008.1
20260508044505 2 192 1.6 4.8 0.00 0.00 0.00 67 1008.2
20260508043004 3 187 3.2 4.8 0.00 0.00 0.00 65 1008.3
20260508041504 3 187 3.2 4.8 0.00 0.00 0.00 63 1008.4
20260508040008 3 187 3.2 6.4 0.00 0.00 0.00 62 1008.4
20260508034505 4 274 3.2 6.4 0.00 0.00 0.00 59 1008.5
20260508033005 5 275 3.2 4.8 0.00 0.00 0.00 56 1008.6
20260508031502 5 275 3.2 4.8 0.00 0.00 0.00 55 1008.6
20260508030002 5 275 1.6 3.2 0.00 0.00 0.00 53 1008.6
20260508024501 6 275 1.6 3.2 0.00 0.00 0.00 51 1008.6
20260508023101 7 275 1.6 3.2 0.00 0.00 0.00 49 1008.5
20260508021601 8 275 0.0 0.0 0.00 0.00 0.00 45 1008.5
20260508014600 10 275 0.0 4.8 0.00 0.00 0.00 37 1008.2
20260508013059 11 275 0.0 6.4 0.00 0.00 0.00 33 1008.3
20260508011607 12 271 3.2 6.4 0.00 0.00 0.00 31 1008.2
20260508010058 12 264 1.6 11.3 0.00 0.00 0.00 30 1008.1
20260508004600 12 257 4.8 16.1 0.00 0.00 0.00 30 1008.2
20260508003059 12 268 4.8 19.3 0.00 0.00 0.00 29 1008.3
20260508001558 12 190 4.8 16.1 0.00 0.00 0.00 30 1008.3
20260508000055 13 300 6.4 14.5 0.00 0.00 0.00 29 1008.4
20260507234602 13 169 6.4 16.1 0.00 0.00 0.00 31 1008.4
20260507233054 12 242 4.8 19.3 0.00 0.00 0.00 30 1008.5
20260507231557 13 279 12.9 19.3 0.00 0.00 0.00 28 1008.6
20260507230057 12 267 11.3 24.1 0.00 0.00 0.00 29 1008.7
20260507224552 13 227 12.9 24.1 0.00 0.00 0.00 28 1008.8
20260507223056 13 272 9.7 24.1 0.00 0.00 0.00 29 1008.8
20260507221550 12 261 14.5 27.4 0.00 0.00 0.00 29 1008.9
20260507220050 13 260 11.3 29.0 0.00 0.00 0.00 28 1009.1
20260507214547 13 270 8.0 20.9 0.00 0.00 0.00 27 1009.0
20260507213046 12 314 11.3 25.7 0.00 0.00 0.00 27 1009.0
20260507211545 13 264 20.9 33.8 0.00 0.00 0.00 29 1009.2
20260507210043 13 275 11.3 25.7 0.00 0.00 0.00 29 1009.2
20260507204542 12 252 16.1 29.0 0.00 0.00 0.00 28 1009.3
20260507203048 13 240 8.0 25.7 0.00 0.00 0.00 32 1009.6
20260507201540 12 274 8.0 37.0 0.00 0.00 0.00 30 1009.9
20260507200046 12 224 11.3 29.0 0.00 0.00 0.00 31 1010.0
20260507194534 11 321 11.3 33.8 0.00 0.00 0.00 30 1010.3
20260507193035 11 259 11.3 19.3 0.00 0.00 0.00 30 1010.3
20260507191532 11 226 11.3 30.6 0.00 0.00 0.00 31 1010.5
20260507190033 12 235 11.3 19.3 0.00 0.00 0.00 30 1010.5
20260507184530 11 315 11.3 24.1 0.00 0.00 0.00 33 1010.5
20260507183036 11 222 14.5 27.4 0.00 0.00 0.00 31 1010.8
20260507181526 11 282 11.3 29.0 0.00 0.00 0.00 34 1011.0
20260507180035 10 271 9.7 19.3 0.00 0.00 0.00 34 1011.1
20260507174528 10 297 8.0 24.1 0.00 0.00 0.00 37 1011.3
20260507173019 10 333 11.3 22.5 0.00 0.00 0.00 35 1011.6
20260507171517 10 328 9.7 25.7 0.00 0.00 0.00 34 1011.7
20260507170018 10 314 6.4 25.7 0.00 0.00 0.00 34 1011.7
20260507164514 9 165 14.5 25.7 0.00 0.00 0.00 33 1011.9
20260507163011 10 262 11.3 19.3 0.00 0.00 0.00 38 1012.0
20260507161508 9 317 1.6 20.9 0.00 0.00 0.00 36 1012.2
20260507160005 8 191 8.0 17.7 0.00 0.00 0.00 39 1012.3
20260507154502 8 178 0.0 14.5 0.00 0.00 0.00 41 1012.3
20260507153059 8 259 6.4 17.7 0.00 0.00 0.00 39 1012.4
20260507151556 8 42 4.8 14.5 0.00 0.00 0.00 42 1012.3
20260507150052 7 304 1.6 14.5 0.00 0.00 0.00 44 1012.4
20260507144547 7 284 3.2 12.9 0.00 0.00 0.00 43 1012.5
20260507143046 7 313 4.8 16.1 0.00 0.00 0.00 45 1012.7
20260507141540 6 282 3.2 11.3 0.00 0.00 0.00 45 1012.7
20260507140034 6 296 4.8 12.9 0.00 0.00 0.00 48 1012.8
20260507134539 6 241 3.2 12.9 0.00 0.00 0.00 51 1012.9
20260507133027 5 271 4.8 11.3 0.00 0.00 0.00 54 1012.9
20260507131531 5 306 3.2 17.7 0.00 0.00 0.00 57 1012.9
20260507130019 4 264 4.8 9.7 0.00 0.00 0.00 60 1012.9
20260507124515 3 215 4.8 11.3 0.00 0.00 0.00 63 1013.0
20260507123018 3 5 1.6 6.4 0.00 0.00 0.00 67 1013.0
20260507121506 2 174 3.2 6.4 0.00 0.00 0.00 69 1013.0
20260507120006 2 225 1.6 4.8 0.00 0.00 0.00 71 1013.0
20260507114503 1 276 1.6 4.8 0.00 0.00 0.00 70 1013.0
20260507113100 1 276 1.6 6.4 0.00 0.00 0.00 70 1012.9
20260507111555 1 269 1.6 6.4 0.00 0.00 0.00 71 1012.9
20260507110107 1 273 1.6 6.4 0.00 0.00 0.00 71 1012.9
20260507104554 1 221 3.2 6.4 0.00 0.00 0.00 72 1013.0
20260507103056 1 221 1.6 6.4 0.00 0.00 0.00 70 1013.1
20260507101551 1 221 3.2 4.8 0.00 0.00 0.00 69 1013.1
20260507100049 1 221 1.6 4.8 0.00 0.00 0.00 68 1013.1